Time,TemperatureF,DewpointF,PressureIn,WindDirection,WindDirectionDegrees,WindSpeedMPH,WindSpeedGustMPH,Humidity,HourlyPrecipIn,Conditions,Clouds,dailyrainin,SoftwareType,DateUTC
2013-03-06 00:02:00,22.3,20.1,30.35,WNW,287,0.0,0.0,91,0.00,,,0.00,Wunderground v.1.15,2013-03-06 06:02:00,
2013-03-06 00:08:00,22.5,20.0,30.36,North,353,0.0,0.0,90,0.00,,,0.00,Wunderground v.1.15,2013-03-06 06:08:00,
2013-03-06 00:14:00,22.6,19.3,30.36,NNW,329,0.0,0.0,87,0.00,,,0.00,Wunderground v.1.15,2013-03-06 06:14:00,
2013-03-06 00:19:00,22.7,19.1,30.37,NNW,342,0.0,0.0,86,0.00,,,0.00,Wunderground v.1.15,2013-03-06 06:19:00,
2013-03-06 00:25:00,22.7,19.1,30.37,NNW,327,0.0,0.0,86,0.00,,,0.00,Wunderground v.1.15,2013-03-06 06:25:00,
2013-03-06 00:30:00,22.7,18.9,30.37,NNW,346,0.0,0.0,85,0.00,,,0.00,Wunderground v.1.15,2013-03-06 06:30:00,
2013-03-06 00:36:00,22.7,18.9,30.37,NNW,338,0.0,0.0,85,0.00,,,0.00,Wunderground v.1.15,2013-03-06 06:36:00,
2013-03-06 00:42:00,22.5,18.9,30.37,NNW,333,0.0,0.0,86,0.00,,,0.00,Wunderground v.1.15,2013-03-06 06:42:00,
2013-03-06 00:47:00,22.5,18.9,30.37,North,6,0.0,0.0,86,0.00,,,0.00,Wunderground v.1.15,2013-03-06 06:47:00,
2013-03-06 00:52:00,22.5,18.9,30.38,NNW,330,0.0,0.0,86,0.00,,,0.00,Wunderground v.1.15,2013-03-06 06:52:00,
2013-03-06 00:58:00,22.4,18.8,30.38,NNW,327,0.0,0.0,86,0.00,,,0.00,Wunderground v.1.15,2013-03-06 06:58:00,
2013-03-06 01:03:00,22.2,18.7,30.38,NW,319,0.0,0.0,86,0.00,,,0.00,Wunderground v.1.15,2013-03-06 07:03:00,
2013-03-06 01:09:00,22.1,18.6,30.38,NNW,342,0.0,0.0,86,0.00,,,0.00,Wunderground v.1.15,2013-03-06 07:09:00,
2013-03-06 01:14:00,22.0,18.5,30.38,NNW,332,0.0,0.0,86,0.00,,,0.00,Wunderground v.1.15,2013-03-06 07:14:00,
2013-03-06 01:20:00,21.9,18.4,30.38,NNW,334,0.0,0.0,86,0.00,,,0.00,Wunderground v.1.15,2013-03-06 07:20:00,
2013-03-06 01:25:00,21.8,18.3,30.38,NNW,344,0.0,0.0,86,0.00,,,0.00,Wunderground v.1.15,2013-03-06 07:25:00,
2013-03-06 01:30:00,21.8,18.3,30.38,NNW,331,0.0,0.0,86,0.00,,,0.00,Wunderground v.1.15,2013-03-06 07:30:00,
2013-03-06 01:36:00,21.7,18.2,30.39,NW,314,0.0,0.0,86,0.00,,,0.00,Wunderground v.1.15,2013-03-06 07:36:00,
2013-03-06 01:42:00,21.7,18.2,30.39,NNW,342,0.0,0.0,86,0.00,,,0.00,Wunderground v.1.15,2013-03-06 07:42:00,
2013-03-06 01:48:00,21.5,18.0,30.39,NNW,340,0.0,0.0,86,0.00,,,0.00,Wunderground v.1.15,2013-03-06 07:48:00,
2013-03-06 01:54:00,21.5,18.0,30.39,NNW,339,0.0,0.0,86,0.00,,,0.00,Wunderground v.1.15,2013-03-06 07:54:00,
2013-03-06 01:59:00,21.4,17.9,30.40,NNW,330,0.0,0.0,86,0.00,,,0.00,Wunderground v.1.15,2013-03-06 07:59:00,
2013-03-06 02:04:00,21.4,17.9,30.40,North,356,0.0,0.0,86,0.00,,,0.00,Wunderground v.1.15,2013-03-06 08:04:00,
2013-03-06 02:09:00,21.4,17.9,30.40,North,360,0.0,0.0,86,0.00,,,0.00,Wunderground v.1.15,2013-03-06 08:09:00,
2013-03-06 02:14:00,21.5,17.7,30.40,NNW,340,0.0,0.0,85,0.00,,,0.00,Wunderground v.1.15,2013-03-06 08:14:00,
2013-03-06 02:19:00,21.4,17.3,30.40,NNE,12,0.0,0.0,84,0.00,,,0.00,Wunderground v.1.15,2013-03-06 08:19:00,
2013-03-06 02:24:00,21.5,17.4,30.41,NNW,342,0.0,0.0,84,0.00,,,0.00,Wunderground v.1.15,2013-03-06 08:24:00,
2013-03-06 02:29:00,21.4,17.3,30.41,NNW,345,0.0,0.0,84,0.00,,,0.00,Wunderground v.1.15,2013-03-06 08:29:00,
2013-03-06 02:34:00,21.3,17.2,30.41,NNW,332,0.0,0.0,84,0.00,,,0.00,Wunderground v.1.15,2013-03-06 08:34:00,
2013-03-06 02:40:00,21.2,17.1,30.41,NNW,327,0.0,0.0,84,0.00,,,0.00,Wunderground v.1.15,2013-03-06 08:40:00,
2013-03-06 02:45:00,20.7,16.6,30.41,NNW,338,0.0,0.0,84,0.00,,,0.00,Wunderground v.1.15,2013-03-06 08:45:00,
2013-03-06 02:50:00,20.3,16.2,30.42,NNW,338,0.0,0.0,84,0.00,,,0.00,Wunderground v.1.15,2013-03-06 08:50:00,
2013-03-06 02:55:00,19.7,15.6,30.42,NNW,330,0.0,0.0,84,0.00,,,0.00,Wunderground v.1.15,2013-03-06 08:55:00,
2013-03-06 03:00:00,19.2,15.2,30.42,North,354,0.0,0.0,84,0.00,,,0.00,Wunderground v.1.15,2013-03-06 09:00:00,
2013-03-06 03:05:00,18.8,14.8,30.42,NNW,327,0.0,0.0,84,0.00,,,0.00,Wunderground v.1.15,2013-03-06 09:05:00,
2013-03-06 03:10:00,18.6,14.8,30.42,NNW,334,0.0,0.0,85,0.00,,,0.00,Wunderground v.1.15,2013-03-06 09:10:00,
2013-03-06 03:15:00,18.5,14.7,30.43,NNW,346,0.0,0.0,85,0.00,,,0.00,Wunderground v.1.15,2013-03-06 09:15:00,
2013-03-06 03:21:00,18.3,14.5,30.43,NNW,333,0.0,0.0,85,0.00,,,0.00,Wunderground v.1.15,2013-03-06 09:21:00,
2013-03-06 03:26:00,18.1,14.4,30.43,NNW,327,0.0,0.0,85,0.00,,,0.00,Wunderground v.1.15,2013-03-06 09:26:00,
2013-03-06 03:31:00,17.9,14.2,30.43,NNW,345,0.0,0.0,85,0.00,,,0.00,Wunderground v.1.15,2013-03-06 09:31:00,
2013-03-06 03:36:00,17.9,14.4,30.42,NNW,334,0.0,0.0,86,0.00,,,0.00,Wunderground v.1.15,2013-03-06 09:36:00,
2013-03-06 03:41:00,17.7,14.0,30.43,NNW,341,0.0,0.0,85,0.00,,,0.00,Wunderground v.1.15,2013-03-06 09:41:00,
2013-03-06 03:46:00,17.6,14.1,30.43,NNW,337,0.0,0.0,86,0.00,,,0.00,Wunderground v.1.15,2013-03-06 09:46:00,
2013-03-06 03:51:00,17.4,13.9,30.43,NNW,334,0.0,0.0,86,0.00,,,0.00,Wunderground v.1.15,2013-03-06 09:51:00,
2013-03-06 03:56:00,17.4,13.9,30.43,NNW,341,0.0,0.0,86,0.00,,,0.00,Wunderground v.1.15,2013-03-06 09:56:00,
2013-03-06 04:01:00,17.3,13.8,30.44,NNW,338,0.0,0.0,86,0.00,,,0.00,Wunderground v.1.15,2013-03-06 10:01:00,
2013-03-06 04:06:00,17.3,13.8,30.44,North,350,0.0,0.0,86,0.00,,,0.00,Wunderground v.1.15,2013-03-06 10:06:00,
2013-03-06 04:12:00,17.3,14.1,30.44,North,351,0.0,0.0,87,0.00,,,0.00,Wunderground v.1.15,2013-03-06 10:12:00,
2013-03-06 04:17:00,17.4,14.2,30.44,NNW,339,0.0,0.0,87,0.00,,,0.00,Wunderground v.1.15,2013-03-06 10:17:00,
2013-03-06 04:22:00,17.4,14.2,30.44,NNW,339,0.0,0.0,87,0.00,,,0.00,Wunderground v.1.15,2013-03-06 10:22:00,
2013-03-06 04:27:00,17.3,13.8,30.44,NNW,341,0.0,0.0,86,0.00,,,0.00,Wunderground v.1.15,2013-03-06 10:27:00,
2013-03-06 04:32:00,17.1,13.6,30.44,NNW,338,0.0,0.0,86,0.00,,,0.00,Wunderground v.1.15,2013-03-06 10:32:00,
2013-03-06 04:37:00,16.8,13.3,30.45,NNW,338,0.0,0.0,86,0.00,,,0.00,Wunderground v.1.15,2013-03-06 10:37:00,
2013-03-06 04:42:00,16.6,13.1,30.44,NNW,338,0.0,0.0,86,0.00,,,0.00,Wunderground v.1.15,2013-03-06 10:42:00,
2013-03-06 04:47:00,16.2,13.0,30.44,NNW,334,0.0,0.0,87,0.00,,,0.00,Wunderground v.1.15,2013-03-06 10:47:00,
2013-03-06 04:52:00,15.9,12.7,30.45,NNW,336,0.0,0.0,87,0.00,,,0.00,Wunderground v.1.15,2013-03-06 10:52:00,
2013-03-06 04:57:00,15.6,12.4,30.45,NNW,333,0.0,0.0,87,0.00,,,0.00,Wunderground v.1.15,2013-03-06 10:57:00,
2013-03-06 05:03:00,15.3,12.1,30.45,NNW,333,0.0,0.0,87,0.00,,,0.00,Wunderground v.1.15,2013-03-06 11:03:00,
2013-03-06 05:08:00,15.1,11.9,30.45,NNW,330,0.0,0.0,87,0.00,,,0.00,Wunderground v.1.15,2013-03-06 11:08:00,
2013-03-06 05:13:00,14.8,11.9,30.46,NNW,333,0.0,0.0,88,0.00,,,0.00,Wunderground v.1.15,2013-03-06 11:13:00,
2013-03-06 05:18:00,14.5,11.6,30.46,NNW,334,0.0,0.0,88,0.00,,,0.00,Wunderground v.1.15,2013-03-06 11:18:00,
2013-03-06 05:23:00,14.4,11.5,30.46,NNW,327,0.0,0.0,88,0.00,,,0.00,Wunderground v.1.15,2013-03-06 11:23:00,
2013-03-06 05:28:00,14.1,11.2,30.45,NNW,333,0.0,0.0,88,0.00,,,0.00,Wunderground v.1.15,2013-03-06 11:28:00,
2013-03-06 05:33:00,14.0,11.4,30.45,NNW,338,0.0,0.0,89,0.00,,,0.00,Wunderground v.1.15,2013-03-06 11:33:00,
2013-03-06 05:39:00,13.8,10.9,30.46,NNW,335,0.0,0.0,88,0.00,,,0.00,Wunderground v.1.15,2013-03-06 11:39:00,
2013-03-06 05:44:00,13.6,11.0,30.46,NNW,336,0.0,0.0,89,0.00,,,0.00,Wunderground v.1.15,2013-03-06 11:44:00,
2013-03-06 05:49:00,13.4,10.8,30.46,NNW,335,0.0,0.0,89,0.00,,,0.00,Wunderground v.1.15,2013-03-06 11:49:00,
2013-03-06 05:54:00,13.2,10.6,30.46,NNW,332,0.0,0.0,89,0.00,,,0.00,Wunderground v.1.15,2013-03-06 11:54:00,
2013-03-06 05:59:00,13.1,10.5,30.46,NNW,334,0.0,0.0,89,0.00,,,0.00,Wunderground v.1.15,2013-03-06 11:59:00,
2013-03-06 06:04:00,12.9,10.3,30.47,NNW,334,0.0,0.0,89,0.00,,,0.00,Wunderground v.1.15,2013-03-06 12:04:00,
2013-03-06 06:09:00,12.7,10.3,30.47,WNW,299,0.0,0.0,90,0.00,,,0.00,Wunderground v.1.15,2013-03-06 12:09:00,
2013-03-06 06:14:00,13.0,10.9,30.47,NW,314,0.0,0.0,91,0.00,,,0.00,Wunderground v.1.15,2013-03-06 12:14:00,
2013-03-06 06:19:00,13.3,11.2,30.48,NW,320,0.0,0.0,91,0.00,,,0.00,Wunderground v.1.15,2013-03-06 12:19:00,
2013-03-06 06:24:00,13.6,11.5,30.48,NNW,334,0.0,0.0,91,0.00,,,0.00,Wunderground v.1.15,2013-03-06 12:24:00,
2013-03-06 06:30:00,13.5,11.1,30.48,NNW,335,0.0,0.0,90,0.00,,,0.00,Wunderground v.1.15,2013-03-06 12:30:00,
2013-03-06 06:35:00,13.6,11.5,30.49,NNW,330,0.0,0.0,91,0.00,,,0.00,Wunderground v.1.15,2013-03-06 12:35:00,
2013-03-06 06:40:00,14.0,11.9,30.49,NNW,327,0.0,0.0,91,0.00,,,0.00,Wunderground v.1.15,2013-03-06 12:40:00,
2013-03-06 06:45:00,14.3,12.2,30.49,NW,320,0.0,0.0,91,0.00,,,0.00,Wunderground v.1.15,2013-03-06 12:45:00,
2013-03-06 06:50:00,14.7,12.6,30.49,NNW,333,0.0,0.0,91,0.00,,,0.00,Wunderground v.1.15,2013-03-06 12:50:00,
2013-03-06 06:55:00,15.0,12.8,30.49,NNW,331,0.0,0.0,91,0.00,,,0.00,Wunderground v.1.15,2013-03-06 12:55:00,
2013-03-06 07:00:00,15.1,12.9,30.49,NNW,333,0.0,0.0,91,0.00,,,0.00,Wunderground v.1.15,2013-03-06 13:00:00,
2013-03-06 07:05:00,15.4,13.2,30.49,NNW,333,0.0,0.0,91,0.00,,,0.00,Wunderground v.1.15,2013-03-06 13:05:00,
2013-03-06 07:11:00,15.6,13.4,30.49,NNW,334,0.0,0.0,91,0.00,,,0.00,Wunderground v.1.15,2013-03-06 13:11:00,
2013-03-06 07:16:00,15.8,13.6,30.49,NNW,332,0.0,0.0,91,0.00,,,0.00,Wunderground v.1.15,2013-03-06 13:16:00,
2013-03-06 07:21:00,16.0,13.8,30.49,NNW,341,0.0,0.0,91,0.00,,,0.00,Wunderground v.1.15,2013-03-06 13:21:00,
2013-03-06 07:26:00,16.3,14.1,30.50,NNW,327,0.0,0.0,91,0.00,,,0.00,Wunderground v.1.15,2013-03-06 13:26:00,
2013-03-06 07:31:00,16.6,14.4,30.50,North,351,0.0,0.0,91,0.00,,,0.00,Wunderground v.1.15,2013-03-06 13:31:00,
2013-03-06 07:36:00,16.8,14.6,30.50,NNW,333,0.0,0.0,91,0.00,,,0.00,Wunderground v.1.15,2013-03-06 13:36:00,
2013-03-06 07:41:00,17.1,14.9,30.49,NNW,337,0.0,0.0,91,0.00,,,0.00,Wunderground v.1.15,2013-03-06 13:41:00,
2013-03-06 07:46:00,17.3,15.1,30.50,NNW,334,0.0,0.0,91,0.00,,,0.00,Wunderground v.1.15,2013-03-06 13:46:00,
2013-03-06 07:51:00,17.5,15.3,30.50,NNW,335,0.0,0.0,91,0.00,,,0.00,Wunderground v.1.15,2013-03-06 13:51:00,
2013-03-06 07:56:00,17.8,15.6,30.50,NNW,343,0.0,0.0,91,0.00,,,0.00,Wunderground v.1.15,2013-03-06 13:56:00,
2013-03-06 08:01:00,18.2,16.0,30.50,NNW,336,0.0,0.0,91,0.00,,,0.00,Wunderground v.1.15,2013-03-06 14:01:00,
2013-03-06 08:06:00,18.6,16.2,30.50,NNW,334,0.0,0.0,90,0.00,,,0.00,Wunderground v.1.15,2013-03-06 14:06:00,
2013-03-06 08:11:00,18.9,16.2,30.50,NNW,339,0.0,0.0,89,0.00,,,0.00,Wunderground v.1.15,2013-03-06 14:11:00,
2013-03-06 08:16:00,19.2,16.0,30.50,NNW,342,0.0,0.0,87,0.00,,,0.00,Wunderground v.1.15,2013-03-06 14:16:00,
2013-03-06 08:22:00,19.4,15.9,30.50,North,357,0.0,0.0,86,0.00,,,0.00,Wunderground v.1.15,2013-03-06 14:22:00,
2013-03-06 08:27:00,19.6,15.8,30.50,NW,308,0.0,0.0,85,0.00,,,0.00,Wunderground v.1.15,2013-03-06 14:27:00,
2013-03-06 08:32:00,19.8,15.7,30.50,NNW,343,0.0,0.0,84,0.00,,,0.00,Wunderground v.1.15,2013-03-06 14:32:00,
2013-03-06 08:37:00,19.7,15.6,30.50,NNW,340,0.0,0.0,84,0.00,,,0.00,Wunderground v.1.15,2013-03-06 14:37:00,
2013-03-06 08:42:00,19.7,15.6,30.50,NNW,344,0.0,0.0,84,0.00,,,0.00,Wunderground v.1.15,2013-03-06 14:42:00,
2013-03-06 08:47:00,19.7,15.6,30.51,NNW,336,0.0,0.0,84,0.00,,,0.00,Wunderground v.1.15,2013-03-06 14:47:00,
2013-03-06 08:52:00,19.8,15.7,30.50,NNW,330,0.0,0.0,84,0.00,,,0.00,Wunderground v.1.15,2013-03-06 14:52:00,
2013-03-06 08:57:00,20.1,16.0,30.50,NNW,333,0.0,0.0,84,0.00,,,0.00,Wunderground v.1.15,2013-03-06 14:57:00,
2013-03-06 09:02:00,20.4,16.1,30.50,NNW,340,0.0,0.0,83,0.00,,,0.00,Wunderground v.1.15,2013-03-06 15:02:00,
2013-03-06 09:07:00,20.8,16.2,30.50,North,6,0.0,0.0,82,0.00,,,0.00,Wunderground v.1.15,2013-03-06 15:07:00,
2013-03-06 09:13:00,21.0,16.4,30.50,NNW,345,0.0,0.0,82,0.00,,,0.00,Wunderground v.1.15,2013-03-06 15:13:00,
2013-03-06 09:18:00,21.2,16.3,30.50,NNW,330,0.0,0.0,81,0.00,,,0.00,Wunderground v.1.15,2013-03-06 15:18:00,
2013-03-06 09:23:00,21.3,16.1,30.50,North,352,0.0,0.0,80,0.00,,,0.00,Wunderground v.1.15,2013-03-06 15:23:00,
2013-03-06 09:28:00,21.3,16.1,30.50,NNW,342,0.0,0.0,80,0.00,,,0.00,Wunderground v.1.15,2013-03-06 15:28:00,
2013-03-06 09:33:00,21.6,16.4,30.50,NNW,336,0.0,0.0,80,0.00,,,0.00,Wunderground v.1.15,2013-03-06 15:33:00,
2013-03-06 09:38:00,21.7,16.2,30.51,NNW,335,0.0,0.0,79,0.00,,,0.00,Wunderground v.1.15,2013-03-06 15:38:00,
2013-03-06 09:43:00,21.8,16.3,30.50,NNW,346,0.0,0.0,79,0.00,,,0.00,Wunderground v.1.15,2013-03-06 15:43:00,
2013-03-06 09:48:00,22.2,16.7,30.51,NNW,337,0.0,0.0,79,0.00,,,0.00,Wunderground v.1.15,2013-03-06 15:48:00,
2013-03-06 09:53:00,22.3,16.8,30.51,NW,313,0.0,0.0,79,0.00,,,0.00,Wunderground v.1.15,2013-03-06 15:53:00,
2013-03-06 09:58:00,22.3,16.8,30.50,NW,325,0.0,0.0,79,0.00,,,0.00,Wunderground v.1.15,2013-03-06 15:58:00,
2013-03-06 10:04:00,22.2,16.4,30.51,NNW,343,6.0,6.0,78,0.00,,,0.00,Wunderground v.1.15,2013-03-06 16:04:00,
2013-03-06 10:09:00,22.0,16.2,30.51,NW,321,6.0,6.0,78,0.00,,,0.00,Wunderground v.1.15,2013-03-06 16:09:00,
2013-03-06 10:14:00,21.8,16.3,30.51,North,356,4.0,6.0,79,0.00,,,0.00,Wunderground v.1.15,2013-03-06 16:14:00,
2013-03-06 10:19:00,21.7,16.2,30.51,NNW,334,6.0,6.0,79,0.00,,,0.00,Wunderground v.1.15,2013-03-06 16:19:00,
2013-03-06 10:24:00,21.7,16.2,30.51,NNW,334,4.0,6.0,79,0.00,,,0.00,Wunderground v.1.15,2013-03-06 16:24:00,
2013-03-06 10:29:00,21.8,16.3,30.51,NNW,347,4.0,7.0,79,0.00,,,0.00,Wunderground v.1.15,2013-03-06 16:29:00,
2013-03-06 10:34:00,22.1,16.3,30.51,NNW,346,4.0,7.0,78,0.00,,,0.00,Wunderground v.1.15,2013-03-06 16:34:00,
2013-03-06 10:39:00,22.5,16.7,30.50,NNW,347,6.0,7.0,78,0.00,,,0.00,Wunderground v.1.15,2013-03-06 16:39:00,
2013-03-06 10:45:00,22.5,16.4,30.50,NNW,328,2.0,7.0,77,0.00,,,0.00,Wunderground v.1.15,2013-03-06 16:45:00,
2013-03-06 10:50:00,22.5,16.4,30.50,NNW,343,6.0,6.0,77,0.00,,,0.00,Wunderground v.1.15,2013-03-06 16:50:00,
2013-03-06 10:55:00,22.6,16.5,30.50,NNW,348,2.0,7.0,77,0.00,,,0.00,Wunderground v.1.15,2013-03-06 16:55:00,
2013-03-06 11:00:00,22.6,16.2,30.50,North,350,3.0,4.0,76,0.00,,,0.00,Wunderground v.1.15,2013-03-06 17:00:00,
2013-03-06 11:05:00,22.7,16.6,30.50,NNW,330,3.0,9.0,77,0.00,,,0.00,Wunderground v.1.15,2013-03-06 17:05:00,
2013-03-06 11:10:00,22.5,16.1,30.50,North,350,4.0,5.0,76,0.00,,,0.00,Wunderground v.1.15,2013-03-06 17:10:00,
2013-03-06 11:15:00,22.9,16.5,30.50,NNW,333,5.0,6.0,76,0.00,,,0.00,Wunderground v.1.15,2013-03-06 17:15:00,
2013-03-06 11:20:00,22.9,16.5,30.50,NNW,343,3.0,6.0,76,0.00,,,0.00,Wunderground v.1.15,2013-03-06 17:20:00,
2013-03-06 11:25:00,22.9,16.5,30.50,NNW,329,4.0,6.0,76,0.00,,,0.00,Wunderground v.1.15,2013-03-06 17:25:00,
2013-03-06 11:31:00,23.1,16.7,30.50,NNW,333,4.0,5.0,76,0.00,,,0.00,Wunderground v.1.15,2013-03-06 17:31:00,
2013-03-06 11:36:00,23.2,16.8,30.50,WNW,283,3.0,7.0,76,0.00,,,0.00,Wunderground v.1.15,2013-03-06 17:36:00,
2013-03-06 11:41:00,23.1,16.7,30.50,NNW,330,3.0,5.0,76,0.00,,,0.00,Wunderground v.1.15,2013-03-06 17:41:00,
2013-03-06 11:46:00,23.2,16.8,30.50,NNW,327,6.0,6.0,76,0.00,,,0.00,Wunderground v.1.15,2013-03-06 17:46:00,
2013-03-06 11:51:00,22.9,16.5,30.50,NNW,338,4.0,5.0,76,0.00,,,0.00,Wunderground v.1.15,2013-03-06 17:51:00,
2013-03-06 11:56:00,23.2,16.4,30.50,NNW,332,3.0,6.0,75,0.00,,,0.00,Wunderground v.1.15,2013-03-06 17:56:00,
2013-03-06 12:02:00,23.6,16.5,30.50,ENE,57,5.0,5.0,74,0.00,,,0.00,Wunderground v.1.15,2013-03-06 18:02:00,
2013-03-06 12:07:00,23.7,16.9,30.50,NNW,336,4.0,6.0,75,0.00,,,0.00,Wunderground v.1.15,2013-03-06 18:07:00,
2013-03-06 12:12:00,24.0,16.9,30.50,NNW,340,4.0,4.0,74,0.00,,,0.00,Wunderground v.1.15,2013-03-06 18:12:00,
2013-03-06 12:17:00,24.1,17.0,30.50,NNW,346,5.0,6.0,74,0.00,,,0.00,Wunderground v.1.15,2013-03-06 18:17:00,
2013-03-06 12:22:00,24.2,16.8,30.50,NNW,330,3.0,7.0,73,0.00,,,0.00,Wunderground v.1.15,2013-03-06 18:22:00,
2013-03-06 12:27:00,24.2,16.8,30.50,NNW,345,6.0,7.0,73,0.00,,,0.00,Wunderground v.1.15,2013-03-06 18:27:00,
2013-03-06 12:32:00,24.1,16.7,30.50,NW,317,4.0,5.0,73,0.00,,,0.00,Wunderground v.1.15,2013-03-06 18:32:00,
2013-03-06 12:37:00,24.0,16.6,30.50,NNW,346,3.0,6.0,73,0.00,,,0.00,Wunderground v.1.15,2013-03-06 18:37:00,
2013-03-06 12:42:00,24.2,16.8,30.50,NNW,340,3.0,4.0,73,0.00,,,0.00,Wunderground v.1.15,2013-03-06 18:42:00,
2013-03-06 12:47:00,24.1,16.4,30.49,NNW,337,2.0,7.0,72,0.00,,,0.00,Wunderground v.1.15,2013-03-06 18:47:00,
2013-03-06 12:52:00,24.0,16.6,30.49,WNW,294,4.0,5.0,73,0.00,,,0.00,Wunderground v.1.15,2013-03-06 18:52:00,
2013-03-06 12:58:00,24.3,16.9,30.49,NW,304,3.0,5.0,73,0.00,,,0.00,Wunderground v.1.15,2013-03-06 18:58:00,
2013-03-06 13:03:00,24.2,16.5,30.49,NNW,340,3.0,6.0,72,0.00,,,0.00,Wunderground v.1.15,2013-03-06 19:03:00,
2013-03-06 13:08:00,24.3,16.9,30.49,NNW,330,3.0,6.0,73,0.00,,,0.00,Wunderground v.1.15,2013-03-06 19:08:00,
2013-03-06 13:13:00,24.6,16.9,30.49,NNW,340,4.0,4.0,72,0.00,,,0.00,Wunderground v.1.15,2013-03-06 19:13:00,
2013-03-06 13:18:00,24.7,16.6,30.48,NW,313,4.0,5.0,71,0.00,,,0.00,Wunderground v.1.15,2013-03-06 19:18:00,
2013-03-06 13:23:00,24.5,16.4,30.49,NW,306,4.0,6.0,71,0.00,,,0.00,Wunderground v.1.15,2013-03-06 19:23:00,
2013-03-06 13:28:00,24.6,16.5,30.48,NNW,330,3.0,6.0,71,0.00,,,0.00,Wunderground v.1.15,2013-03-06 19:28:00,
2013-03-06 13:33:00,24.6,16.5,30.48,NW,307,3.0,5.0,71,0.00,,,0.00,Wunderground v.1.15,2013-03-06 19:33:00,
2013-03-06 13:38:00,24.7,17.0,30.48,NW,323,1.0,6.0,72,0.00,,,0.00,Wunderground v.1.15,2013-03-06 19:38:00,
2013-03-06 13:43:00,24.9,16.8,30.48,NW,307,4.0,4.0,71,0.00,,,0.00,Wunderground v.1.15,2013-03-06 19:43:00,
2013-03-06 13:48:00,25.0,16.9,30.47,NW,318,3.0,4.0,71,0.00,,,0.00,Wunderground v.1.15,2013-03-06 19:48:00,
2013-03-06 13:53:00,25.1,17.0,30.48,NNW,343,3.0,5.0,71,0.00,,,0.00,Wunderground v.1.15,2013-03-06 19:53:00,
2013-03-06 13:59:00,25.0,17.2,30.47,NNW,327,3.0,6.0,72,0.00,,,0.00,Wunderground v.1.15,2013-03-06 19:59:00,
2013-03-06 14:04:00,25.0,17.2,30.47,NNW,335,2.0,5.0,72,0.00,,,0.00,Wunderground v.1.15,2013-03-06 20:04:00,
2013-03-06 14:09:00,25.0,16.9,30.47,NW,309,3.0,5.0,71,0.00,,,0.00,Wunderground v.1.15,2013-03-06 20:09:00,
2013-03-06 14:14:00,25.1,17.3,30.47,NNW,330,3.0,4.0,72,0.00,,,0.00,Wunderground v.1.15,2013-03-06 20:14:00,
2013-03-06 14:19:00,25.1,17.0,30.47,NNW,338,2.0,5.0,71,0.00,,,0.00,Wunderground v.1.15,2013-03-06 20:19:00,
2013-03-06 14:24:00,25.2,17.1,30.47,NNW,335,3.0,5.0,71,0.00,,,0.00,Wunderground v.1.15,2013-03-06 20:24:00,
2013-03-06 14:29:00,25.3,17.2,30.47,NW,309,3.0,5.0,71,0.00,,,0.00,Wunderground v.1.15,2013-03-06 20:29:00,
2013-03-06 14:34:00,25.2,16.8,30.47,NNW,327,2.0,5.0,70,0.00,,,0.00,Wunderground v.1.15,2013-03-06 20:34:00,
2013-03-06 14:40:00,25.3,17.2,30.47,NNW,338,3.0,3.0,71,0.00,,,0.00,Wunderground v.1.15,2013-03-06 20:40:00,
2013-03-06 14:45:00,25.3,17.2,30.47,NNW,342,3.0,4.0,71,0.00,,,0.00,Wunderground v.1.15,2013-03-06 20:45:00,
2013-03-06 14:50:00,25.2,17.1,30.46,NW,316,3.0,3.0,71,0.00,,,0.00,Wunderground v.1.15,2013-03-06 20:50:00,
2013-03-06 14:55:00,25.3,16.9,30.46,NNW,340,4.0,6.0,70,0.00,,,0.00,Wunderground v.1.15,2013-03-06 20:55:00,
2013-03-06 15:00:00,25.3,16.9,30.46,NNW,347,4.0,4.0,70,0.00,,,0.00,Wunderground v.1.15,2013-03-06 21:00:00,
2013-03-06 15:05:00,25.3,16.9,30.46,NNW,339,3.0,5.0,70,0.00,,,0.00,Wunderground v.1.15,2013-03-06 21:05:00,
2013-03-06 15:10:00,25.2,16.8,30.46,NW,326,4.0,4.0,70,0.00,,,0.00,Wunderground v.1.15,2013-03-06 21:10:00,
2013-03-06 15:15:00,25.1,16.7,30.46,North,11,2.0,5.0,70,0.00,,,0.00,Wunderground v.1.15,2013-03-06 21:15:00,
2013-03-06 15:20:00,25.2,16.5,30.46,NNW,330,3.0,3.0,69,0.00,,,0.00,Wunderground v.1.15,2013-03-06 21:20:00,
2013-03-06 15:26:00,25.2,16.8,30.46,NNW,339,3.0,5.0,70,0.00,,,0.00,Wunderground v.1.15,2013-03-06 21:26:00,
2013-03-06 15:31:00,25.2,16.8,30.46,NNW,339,4.0,4.0,70,0.00,,,0.00,Wunderground v.1.15,2013-03-06 21:31:00,
2013-03-06 15:36:00,25.1,16.4,30.46,North,8,2.0,5.0,69,0.00,,,0.00,Wunderground v.1.15,2013-03-06 21:36:00,
2013-03-06 15:41:00,25.2,16.5,30.46,North,353,3.0,4.0,69,0.00,,,0.00,Wunderground v.1.15,2013-03-06 21:41:00,
2013-03-06 15:47:00,25.2,16.5,30.46,NW,318,2.0,4.0,69,0.00,,,0.00,Wunderground v.1.15,2013-03-06 21:47:00,
2013-03-06 15:52:00,25.3,16.5,30.46,West,278,3.0,4.0,69,0.00,,,0.00,Wunderground v.1.15,2013-03-06 21:52:00,
2013-03-06 15:57:00,25.3,16.5,30.46,NNW,328,1.0,4.0,69,0.00,,,0.00,Wunderground v.1.15,2013-03-06 21:57:00,
2013-03-06 16:02:00,25.3,16.5,30.46,North,349,2.0,3.0,69,0.00,,,0.00,Wunderground v.1.15,2013-03-06 22:02:00,
2013-03-06 16:07:00,25.2,16.5,30.46,NNW,335,2.0,4.0,69,0.00,,,0.00,Wunderground v.1.15,2013-03-06 22:07:00,
2013-03-06 16:12:00,25.1,16.7,30.45,NW,316,2.0,3.0,70,0.00,,,0.00,Wunderground v.1.15,2013-03-06 22:12:00,
2013-03-06 16:17:00,25.0,16.6,30.46,NNW,343,2.0,3.0,70,0.00,,,0.00,Wunderground v.1.15,2013-03-06 22:17:00,
2013-03-06 16:22:00,25.0,16.6,30.45,NNW,332,2.0,3.0,70,0.00,,,0.00,Wunderground v.1.15,2013-03-06 22:22:00,
2013-03-06 16:27:00,24.9,16.5,30.46,NW,326,3.0,4.0,70,0.00,,,0.00,Wunderground v.1.15,2013-03-06 22:27:00,
2013-03-06 16:32:00,24.7,16.3,30.46,NNW,346,2.0,3.0,70,0.00,,,0.00,Wunderground v.1.15,2013-03-06 22:32:00,
2013-03-06 16:37:00,24.6,16.5,30.46,NNW,333,3.0,3.0,71,0.00,,,0.00,Wunderground v.1.15,2013-03-06 22:37:00,
2013-03-06 16:42:00,24.5,16.4,30.46,NNW,334,1.0,3.0,71,0.00,,,0.00,Wunderground v.1.15,2013-03-06 22:42:00,
2013-03-06 16:48:00,24.4,16.3,30.46,NNW,346,2.0,3.0,71,0.00,,,0.00,Wunderground v.1.15,2013-03-06 22:48:00,
2013-03-06 16:53:00,24.2,16.5,30.46,NNW,333,2.0,3.0,72,0.00,,,0.00,Wunderground v.1.15,2013-03-06 22:53:00,
2013-03-06 16:58:00,24.2,16.5,30.46,NNW,345,2.0,3.0,72,0.00,,,0.00,Wunderground v.1.15,2013-03-06 22:58:00,
2013-03-06 17:03:00,24.1,16.4,30.46,NNW,327,2.0,2.0,72,0.00,,,0.00,Wunderground v.1.15,2013-03-06 23:03:00,
2013-03-06 17:08:00,24.0,16.3,30.47,NW,313,2.0,3.0,72,0.00,,,0.00,Wunderground v.1.15,2013-03-06 23:08:00,
2013-03-06 17:13:00,24.0,16.3,30.47,NW,314,2.0,2.0,72,0.00,,,0.00,Wunderground v.1.15,2013-03-06 23:13:00,
2013-03-06 17:18:00,24.0,16.3,30.47,NNW,328,1.0,3.0,72,0.00,,,0.00,Wunderground v.1.15,2013-03-06 23:18:00,
2013-03-06 17:24:00,23.9,16.2,30.46,WNW,299,2.0,3.0,72,0.00,,,0.00,Wunderground v.1.15,2013-03-06 23:24:00,
2013-03-06 17:29:00,23.6,16.2,30.46,NW,318,1.0,3.0,73,0.00,,,0.00,Wunderground v.1.15,2013-03-06 23:29:00,
2013-03-06 17:34:00,23.4,16.0,30.46,NNW,327,1.0,2.0,73,0.00,,,0.00,Wunderground v.1.15,2013-03-06 23:34:00,
2013-03-06 17:39:00,23.3,15.9,30.46,NW,324,0.0,2.0,73,0.00,,,0.00,Wunderground v.1.15,2013-03-06 23:39:00,
2013-03-06 17:44:00,23.0,15.6,30.46,NW,325,1.0,1.0,73,0.00,,,0.00,Wunderground v.1.15,2013-03-06 23:44:00,
2013-03-06 17:49:00,22.7,15.7,30.46,NW,312,1.0,1.0,74,0.00,,,0.00,Wunderground v.1.15,2013-03-06 23:49:00,
2013-03-06 17:54:00,22.5,15.8,30.46,WNW,297,1.0,1.0,75,0.00,,,0.00,Wunderground v.1.15,2013-03-06 23:54:00,
2013-03-06 17:59:00,22.4,15.7,30.46,WNW,296,0.0,1.0,75,0.00,,,0.00,Wunderground v.1.15,2013-03-06 23:59:00,
2013-03-06 18:04:00,22.1,15.4,30.46,WNW,297,0.0,1.0,75,0.00,,,0.00,Wunderground v.1.15,2013-03-07 00:04:00,
2013-03-06 18:09:00,21.9,15.5,30.45,WNW,297,0.0,1.0,76,0.00,,,0.00,Wunderground v.1.15,2013-03-07 00:09:00,
2013-03-06 18:15:00,21.6,15.2,30.45,WNW,297,0.0,0.0,76,0.00,,,0.00,Wunderground v.1.15,2013-03-07 00:15:00,
2013-03-06 18:20:00,21.5,15.4,30.46,NW,311,0.0,1.0,77,0.00,,,0.00,Wunderground v.1.15,2013-03-07 00:20:00,
2013-03-06 18:25:00,21.1,15.0,30.46,NW,312,0.0,0.0,77,0.00,,,0.00,Wunderground v.1.15,2013-03-07 00:25:00,
2013-03-06 18:30:00,20.7,14.6,30.46,NW,311,0.0,0.0,77,0.00,,,0.00,Wunderground v.1.15,2013-03-07 00:30:00,
2013-03-06 18:35:00,20.5,14.7,30.46,NW,311,0.0,0.0,78,0.00,,,0.00,Wunderground v.1.15,2013-03-07 00:35:00,
2013-03-06 18:40:00,20.4,14.9,30.46,NW,311,0.0,0.0,79,0.00,,,0.00,Wunderground v.1.15,2013-03-07 00:40:00,
2013-03-06 18:45:00,20.4,14.9,30.46,WNW,299,0.0,0.0,79,0.00,,,0.00,Wunderground v.1.15,2013-03-07 00:45:00,
2013-03-06 18:50:00,20.4,14.9,30.46,NW,319,1.0,1.0,79,0.00,,,0.00,Wunderground v.1.15,2013-03-07 00:50:00,
2013-03-06 18:56:00,20.4,14.9,30.46,West,276,0.0,1.0,79,0.00,,,0.00,Wunderground v.1.15,2013-03-07 00:56:00,
2013-03-06 19:01:00,20.4,14.9,30.46,West,260,0.0,0.0,79,0.00,,,0.00,Wunderground v.1.15,2013-03-07 01:01:00,
2013-03-06 19:06:00,20.2,14.7,30.47,West,259,0.0,1.0,79,0.00,,,0.00,Wunderground v.1.15,2013-03-07 01:06:00,
2013-03-06 19:11:00,20.1,14.6,30.46,WSW,258,0.0,0.0,79,0.00,,,0.00,Wunderground v.1.15,2013-03-07 01:11:00,
2013-03-06 19:16:00,20.1,14.6,30.46,WNW,283,0.0,1.0,79,0.00,,,0.00,Wunderground v.1.15,2013-03-07 01:16:00,
2013-03-06 19:21:00,20.0,14.5,30.46,West,281,0.0,0.0,79,0.00,,,0.00,Wunderground v.1.15,2013-03-07 01:21:00,
2013-03-06 19:27:00,19.8,14.6,30.46,West,281,0.0,1.0,80,0.00,,,0.00,Wunderground v.1.15,2013-03-07 01:27:00,
2013-03-06 19:32:00,19.5,14.3,30.46,West,281,0.0,0.0,80,0.00,,,0.00,Wunderground v.1.15,2013-03-07 01:32:00,
2013-03-06 19:37:00,19.4,14.5,30.46,WNW,302,1.0,2.0,81,0.00,,,0.00,Wunderground v.1.15,2013-03-07 01:37:00,
2013-03-06 19:42:00,19.4,14.2,30.46,NW,308,0.0,1.0,80,0.00,,,0.00,Wunderground v.1.15,2013-03-07 01:42:00,
2013-03-06 19:47:00,19.2,14.3,30.46,NW,308,0.0,1.0,81,0.00,,,0.00,Wunderground v.1.15,2013-03-07 01:47:00,
2013-03-06 19:52:00,18.8,13.9,30.46,NW,307,0.0,0.0,81,0.00,,,0.00,Wunderground v.1.15,2013-03-07 01:52:00,
2013-03-06 19:57:00,18.6,13.7,30.46,NW,309,1.0,1.0,81,0.00,,,0.00,Wunderground v.1.15,2013-03-07 01:57:00,
2013-03-06 20:02:00,18.3,13.7,30.45,NW,309,0.0,1.0,82,0.00,,,0.00,Wunderground v.1.15,2013-03-07 02:02:00,
2013-03-06 20:07:00,18.2,13.6,30.46,NW,309,0.0,1.0,82,0.00,,,0.00,Wunderground v.1.15,2013-03-07 02:07:00,
2013-03-06 20:13:00,17.9,13.3,30.46,NW,309,0.0,0.0,82,0.00,,,0.00,Wunderground v.1.15,2013-03-07 02:13:00,
2013-03-06 20:18:00,17.8,13.5,30.46,NW,309,0.0,0.0,83,0.00,,,0.00,Wunderground v.1.15,2013-03-07 02:18:00,
2013-03-06 20:23:00,17.6,13.3,30.46,NW,309,0.0,0.0,83,0.00,,,0.00,Wunderground v.1.15,2013-03-07 02:23:00,
2013-03-06 20:28:00,17.5,13.5,30.46,NW,309,0.0,0.0,84,0.00,,,0.00,Wunderground v.1.15,2013-03-07 02:28:00,
2013-03-06 20:33:00,17.5,13.5,30.46,NW,309,0.0,0.0,84,0.00,,,0.00,Wunderground v.1.15,2013-03-07 02:33:00,
2013-03-06 20:38:00,17.4,13.4,30.46,NW,309,0.0,0.0,84,0.00,,,0.00,Wunderground v.1.15,2013-03-07 02:38:00,
2013-03-06 20:43:00,17.3,13.3,30.46,NW,309,0.0,0.0,84,0.00,,,0.00,Wunderground v.1.15,2013-03-07 02:43:00,
2013-03-06 20:48:00,17.2,13.5,30.46,NW,309,0.0,0.0,85,0.00,,,0.00,Wunderground v.1.15,2013-03-07 02:48:00,
2013-03-06 20:53:00,17.0,13.3,30.46,NW,309,0.0,0.0,85,0.00,,,0.00,Wunderground v.1.15,2013-03-07 02:53:00,
2013-03-06 20:59:00,16.7,13.0,30.46,NW,309,0.0,0.0,85,0.00,,,0.00,Wunderground v.1.15,2013-03-07 02:59:00,
2013-03-06 21:04:00,16.4,12.7,30.46,NW,309,0.0,0.0,85,0.00,,,0.00,Wunderground v.1.15,2013-03-07 03:04:00,
2013-03-06 21:09:00,15.9,12.2,30.46,NW,309,0.0,0.0,85,0.00,,,0.00,Wunderground v.1.15,2013-03-07 03:09:00,
2013-03-06 21:14:00,16.0,12.6,30.46,NW,309,0.0,0.0,86,0.00,,,0.00,Wunderground v.1.15,2013-03-07 03:14:00,
2013-03-06 21:19:00,16.2,13.0,30.46,NW,309,0.0,0.0,87,0.00,,,0.00,Wunderground v.1.15,2013-03-07 03:19:00,
2013-03-06 21:24:00,16.1,12.9,30.46,NW,309,0.0,0.0,87,0.00,,,0.00,Wunderground v.1.15,2013-03-07 03:24:00,
2013-03-06 21:30:00,15.8,12.4,30.46,NW,309,0.0,0.0,86,0.00,,,0.00,Wunderground v.1.15,2013-03-07 03:30:00,
2013-03-06 21:35:00,15.7,12.5,30.45,NW,309,0.0,0.0,87,0.00,,,0.00,Wunderground v.1.15,2013-03-07 03:35:00,
2013-03-06 21:40:00,15.7,12.5,30.46,NW,309,0.0,0.0,87,0.00,,,0.00,Wunderground v.1.15,2013-03-07 03:40:00,
2013-03-06 21:45:00,15.6,12.4,30.45,NW,309,0.0,0.0,87,0.00,,,0.00,Wunderground v.1.15,2013-03-07 03:45:00,
2013-03-06 21:50:00,15.6,12.7,30.45,NW,309,0.0,0.0,88,0.00,,,0.00,Wunderground v.1.15,2013-03-07 03:50:00,
2013-03-06 21:55:00,15.4,12.2,30.46,NW,309,0.0,0.0,87,0.00,,,0.00,Wunderground v.1.15,2013-03-07 03:55:00,
2013-03-06 22:00:00,14.9,11.7,30.46,NW,309,0.0,0.0,87,0.00,,,0.00,Wunderground v.1.15,2013-03-07 04:00:00,
2013-03-06 22:05:00,14.9,12.0,30.46,NW,309,0.0,0.0,88,0.00,,,0.00,Wunderground v.1.15,2013-03-07 04:05:00,
2013-03-06 22:10:00,15.0,12.3,30.46,NW,309,0.0,0.0,89,0.00,,,0.00,Wunderground v.1.15,2013-03-07 04:10:00,
2013-03-06 22:15:00,14.9,12.2,30.47,NW,309,0.0,0.0,89,0.00,,,0.00,Wunderground v.1.15,2013-03-07 04:15:00,
2013-03-06 22:20:00,14.8,11.9,30.47,South,169,0.0,0.0,88,0.00,,,0.00,Wunderground v.1.15,2013-03-07 04:20:00,
2013-03-06 22:26:00,14.5,11.6,30.47,South,169,0.0,0.0,88,0.00,,,0.00,Wunderground v.1.15,2013-03-07 04:26:00,
2013-03-06 22:31:00,14.8,12.4,30.47,South,169,0.0,0.0,90,0.00,,,0.00,Wunderground v.1.15,2013-03-07 04:31:00,
2013-03-06 22:36:00,14.9,12.2,30.47,South,169,0.0,0.0,89,0.00,,,0.00,Wunderground v.1.15,2013-03-07 04:36:00,
2013-03-06 22:41:00,14.8,12.1,30.47,South,169,0.0,0.0,89,0.00,,,0.00,Wunderground v.1.15,2013-03-07 04:41:00,
2013-03-06 22:46:00,14.6,11.9,30.47,South,169,0.0,0.0,89,0.00,,,0.00,Wunderground v.1.15,2013-03-07 04:46:00,
2013-03-06 22:51:00,14.4,11.8,30.47,South,169,0.0,0.0,89,0.00,,,0.00,Wunderground v.1.15,2013-03-07 04:51:00,
2013-03-06 22:56:00,14.2,11.6,30.47,South,169,0.0,0.0,89,0.00,,,0.00,Wunderground v.1.15,2013-03-07 04:56:00,
2013-03-06 23:00:00,14.0,11.4,30.48,South,169,0.0,0.0,89,0.00,,,0.00,Wunderground v.1.15,2013-03-07 05:00:00,
2013-03-06 23:01:00,13.9,11.3,30.48,South,169,0.0,0.0,89,0.00,,,0.00,Wunderground v.1.15,2013-03-07 05:01:00,
2013-03-06 23:04:00,13.8,11.2,30.48,South,169,0.0,0.0,89,0.00,,,0.00,Wunderground v.1.15,2013-03-07 05:04:00,
2013-03-06 23:09:00,13.4,10.8,30.47,South,169,0.0,0.0,89,0.00,,,0.00,Wunderground v.1.15,2013-03-07 05:09:00,
2013-03-06 23:14:00,13.5,11.1,30.48,South,169,1.0,1.0,90,0.00,,,0.00,Wunderground v.1.15,2013-03-07 05:14:00,
2013-03-06 23:19:00,13.4,11.0,30.48,South,169,1.0,1.0,90,0.00,,,0.00,Wunderground v.1.15,2013-03-07 05:19:00,
2013-03-06 23:24:00,13.2,10.8,30.48,South,169,0.0,1.0,90,0.00,,,0.00,Wunderground v.1.15,2013-03-07 05:24:00,
2013-03-06 23:29:00,13.0,10.6,30.48,South,169,0.0,1.0,90,0.00,,,0.00,Wunderground v.1.15,2013-03-07 05:29:00,
2013-03-06 23:35:00,12.8,10.2,30.48,South,169,0.0,0.0,89,0.00,,,0.00,Wunderground v.1.15,2013-03-07 05:35:00,
2013-03-06 23:40:00,12.6,10.2,30.48,South,169,0.0,0.0,90,0.00,,,0.00,Wunderground v.1.15,2013-03-07 05:40:00,
2013-03-06 23:45:00,12.5,10.1,30.48,South,169,0.0,0.0,90,0.00,,,0.00,Wunderground v.1.15,2013-03-07 05:45:00,
2013-03-06 23:50:00,12.3,9.9,30.48,South,169,0.0,0.0,90,0.00,,,0.00,Wunderground v.1.15,2013-03-07 05:50:00,
2013-03-06 23:55:00,12.2,9.8,30.48,South,169,0.0,0.0,90,0.00,,,0.00,Wunderground v.1.15,2013-03-07 05:55:00,